TimeCDT,TemperatureF,Dew PointF,Humidity,Sea Level PressureIn,VisibilityMPH,Wind Direction,Wind SpeedMPH,Gust SpeedMPH,PrecipitationIn,Events,Conditions,WindDirDegrees,DateUTC
12:53 AM,53.1,53.1,100,30.20,4.0,North,3.5,-,N/A,,Overcast,350,2014-03-09 06:53:00
1:53 AM,53.1,52.0,96,30.17,5.0,Calm,Calm,-,N/A,,Overcast,0,2014-03-09 07:53:00
3:02 AM,52.0,52.0,100,30.18,5.0,NW,3.5,-,N/A,,Overcast,320,2014-03-09 08:02:00
3:53 AM,53.1,52.0,96,30.19,7.0,NNW,6.9,-,N/A,,Overcast,340,2014-03-09 08:53:00
4:00 AM,53.1,52.0,96,30.20,6.0,NW,6.9,-,N/A,,Overcast,320,2014-03-09 09:00:00
4:14 AM,53.1,52.0,96,30.20,6.0,NNW,5.8,-,N/A,,Overcast,330,2014-03-09 09:14:00
4:53 AM,52.0,52.0,100,30.20,4.0,NNW,3.5,-,N/A,,Overcast,340,2014-03-09 09:53:00
5:53 AM,51.1,48.9,92,30.20,8.0,NE,8.1,-,N/A,,Overcast,40,2014-03-09 10:53:00
6:28 AM,50.0,46.9,89,30.22,9.0,NNE,5.8,-,N/A,,Overcast,30,2014-03-09 11:28:00
6:53 AM,50.0,46.9,89,30.23,9.0,North,5.8,-,N/A,,Overcast,10,2014-03-09 11:53:00
7:29 AM,48.9,48.0,97,30.26,4.0,North,5.8,-,0.00,Rain,Light Rain,350,2014-03-09 12:29:00
7:46 AM,48.9,48.0,97,30.26,2.5,NNE,4.6,-,0.01,Rain,Light Rain,20,2014-03-09 12:46:00
7:53 AM,48.9,48.0,97,30.27,3.0,North,5.8,-,0.01,Rain,Light Rain,350,2014-03-09 12:53:00
8:24 AM,46.9,46.0,97,30.28,2.5,NNW,9.2,-,0.01,Rain,Light Rain,340,2014-03-09 13:24:00
8:34 AM,46.9,46.0,97,30.28,1.5,North,8.1,-,0.01,Rain,Light Rain,350,2014-03-09 13:34:00
8:53 AM,46.9,46.0,97,30.29,1.8,NNE,8.1,-,0.01,Rain,Light Rain,20,2014-03-09 13:53:00
9:12 AM,46.9,46.0,97,30.29,2.0,NNE,8.1,-,0.00,,Overcast,20,2014-03-09 14:12:00
9:53 AM,46.0,45.0,96,30.31,2.5,NNE,9.2,-,0.00,,Overcast,20,2014-03-09 14:53:00
10:48 AM,46.4,44.6,93,30.31,3.0,North,8.1,-,N/A,,Overcast,10,2014-03-09 15:48:00
10:53 AM,46.9,44.1,90,30.31,3.0,NE,6.9,-,N/A,,Overcast,40,2014-03-09 15:53:00
11:06 AM,46.0,44.1,93,30.32,2.5,NNW,8.1,-,N/A,,Overcast,330,2014-03-09 16:06:00
11:53 AM,46.0,44.1,93,30.31,2.5,North,5.8,-,N/A,,Overcast,360,2014-03-09 16:53:00
12:24 PM,46.9,44.1,90,30.31,3.0,NNE,8.1,-,N/A,,Overcast,30,2014-03-09 17:24:00
12:53 PM,48.0,44.1,86,30.30,3.0,Variable,5.8,-,N/A,,Overcast,0,2014-03-09 17:53:00
1:51 PM,48.2,44.6,87,30.27,3.0,NE,4.6,-,N/A,,Haze,40,2014-03-09 18:51:00
1:53 PM,50.0,44.1,80,30.27,3.0,NNE,5.8,-,N/A,,Haze,30,2014-03-09 18:53:00
2:53 PM,51.1,45.0,80,30.26,4.0,Calm,Calm,-,N/A,,Haze,0,2014-03-09 19:53:00
3:38 PM,53.1,46.0,77,30.24,5.0,Calm,Calm,-,N/A,,Haze,0,2014-03-09 20:38:00
3:53 PM,53.1,46.0,77,30.24,4.0,NW,3.5,-,N/A,,Haze,320,2014-03-09 20:53:00
4:05 PM,54.0,46.0,75,30.24,5.0,Variable,3.5,-,N/A,,Haze,0,2014-03-09 21:05:00
4:53 PM,53.1,46.0,77,30.22,5.0,Calm,Calm,-,N/A,,Haze,0,2014-03-09 21:53:00
5:53 PM,53.1,46.9,80,30.22,5.0,Calm,Calm,-,N/A,,Haze,0,2014-03-09 22:53:00
6:53 PM,53.1,46.9,80,30.21,6.0,Calm,Calm,-,N/A,,Haze,0,2014-03-09 23:53:00
7:53 PM,52.0,48.0,86,30.19,7.0,SSW,3.5,-,N/A,,Overcast,210,2014-03-10 00:53:00
8:53 PM,51.1,48.0,89,30.21,6.0,Calm,Calm,-,N/A,,Overcast,0,2014-03-10 01:53:00
9:53 PM,50.0,46.9,89,30.21,5.0,Calm,Calm,-,N/A,,Overcast,0,2014-03-10 02:53:00
10:53 PM,48.9,46.9,93,30.21,5.0,Calm,Calm,-,N/A,,Mostly Cloudy,0,2014-03-10 03:53:00
11:53 PM,46.9,46.0,97,30.22,3.0,Calm,Calm,-,N/A,,Overcast,0,2014-03-10 04:53:00
12:20 AM,45.0,45.0,100,30.21,1.5,Calm,Calm,-,N/A,,Partly Cloudy,0,2014-03-10 05:20:00
12:37 AM,43.0,43.0,100,30.21,2.5,Calm,Calm,-,N/A,,Clear,0,2014-03-10 05:37:00
12:46 AM,42.1,42.1,100,30.21,0.8,NW,3.5,-,N/A,,Clear,320,2014-03-10 05:46:00
12:53 AM,43.0,43.0,100,30.21,0.8,Calm,Calm,-,N/A,,Clear,0,2014-03-10 05:53:00